If you wish to contribute or participate in the discussions about articles you are invited to join SKYbrary as a registered user

 Actions

Anaktuvuk Pass Airport

From SKYbrary Wiki

PAKP
Airport
ICAO: PAKP – IATA: AKP
Summary
Name Anaktuvuk Pass Airport
Region North America
Territory Alaska US.gif
Location , Alaska
Serving Anaktuvuk Pass
Elevation 640.69 m
2,102 ft
2,102 ft640.69 m
Type medium airport
Coordinates 68° 8' 0.96", -151° 44' 34.8"
Runways
Designator Length Width Surface ROPS
2/20 1463 m4,799.869 ft 30 m98.425 ft GRAVEL-G /


METAR
Observation PAKP 251256Z AUTO 23010KT 6SM -SN OVC046 M19/M22 A2943 RMK AO2 SLP042 P0000 T11891217 FZRANO
Station Anaktuvuk Pass, Anaktuvuk Pass Airport
Date/Time 25 February 2018 12:56:00
Wind direction 230°
Wind speed 10 kts
Lowest cloud amount overcast
Temperature
Dew point
Humidity 78%
QNH hPa
Weather condition light snow